Temperature
5 5 5 5 5 5 5 5 5 5 5 6 5 6 6 6 6 5 6 6 6 6 6 5 5 5 5 5 5 5 5 5 5 6 5 5 5 5 5 5 5 5 5
5 5 5 5 5 4 5 5 5 5 5 5 5 5 5 5 5 5 5 5 5 5 5 5 5 5 5 5 5 5 5 5 5 5 5 5 5 5 5 4 4 4 4
5 5 4 4 4 4 4 4 4 4 5 5 5 5 5 5 5 5 5 5 5 5 5 5 5 5 5 5 5 5 5 5 4 4 4 4 4 4 4 4 4 4 4
5 4 4 4 4 4 4 4 4 4 4 4 4 4 4 4 4 4 4 4 4 4 4 4 4 4 4 4 4 4 4 4 4 4 4 4 4 4 3 3 3 3 3
4 4 4 4 4 4 4 4 4 4 4 4 4 4 4 4 4 4 4 4 4 4 3 4 4 4 4 3 3 3 3 3 3 3 3 3 3 3 3 3 3 2 2
4 4 4 4 4 4 3 3 3 3 3 3 4 4 4 4 4 3 3 3 3 3 3 3 3 3 3 3 3 3 3 3 3 3 3 2 2 2 2 2 2 2 1
4 4 3 3 3 3 3 3 3 3 3 3 3 3 3 3 3 3 3 3 3 3 3 3 3 3 3 3 3 3 3 3 2 2 2 2 2 2 2 2 1 1 1
3 3 3 3 3 3 3 3 3 3 3 3 3 3 3 3 3 3 2 2 2 2 3 2 3 2 2 2 2 2 2 2 2 2 2 2 1 1 1 1 1 0 0
3 3 3 3 3 2 2 2 2 2 2 2 2 2 2 2 2 2 2 2 2 2 2 2 2 2 2 2 2 2 2 2 1 1 1 1 1 1 0 0 -0 -0 -1
3 2 2 2 2 2 2 2 2 2 2 2 2 2 2 2 2 2 2 2 2 2 2 2 2 1 1 1 1 1 1 1 1 1 1 0 0 0 -0 -0 -1 -1 -1
2 2 2 2 2 2 2 2 2 2 1 1 1 1 1 2 1 1 1 1 1 1 1 1 1 1 1 1 1 1 0 0 0 0 0 -0 -0 -1 -1 -1 -1 -2 -2
2 2 1 1 1 1 1 1 1 1 1 1 1 1 1 1 1 1 1 1 1 1 1 1 1 0 0 0 0 -0 -0 -0 -1 -1 -1 -1 -1 -1 -1 -2 -2 -2 -2
1 1 1 1 1 1 1 1 0 0 0 0 0 0 0 0 -0 -0 -0 0 0 0 -0 -0 -0 -0 -0 -1 -1 -1 -1 -1 -1 -1 -1 -1 -2 -2 -2 -2 -3 -3 -3
1 0 0 0 0 0 0 -0 -0 -0 -0 -0 -1 -1 -1 -1 -1 -1 -1 -1 -1 -1 -1 -1 -1 -1 -1 -1 -1 -1 -1 -1 -2 -2 -2 -2 -2 -3 -3 -3 -3 -3 -4
-0 -0 -0 -0 -0 -0 -0 -1 -1 -1 -1 -1 -1 -1 -1 -1 -1 -1 -1 -1 -1 -1 -1 -1 -1 -2 -2 -2 -2 -2 -2 -2 -2 -3 -3 -3 -3 -3 -3 -4 -4 -4 -4
-1 -1 -1 -1 -1 -1 -1 -1 -1 -1 -1 -2 -2 -2 -2 -2 -2 -2 -2 -2 -2 -2 -2 -2 -2 -2 -2 -3 -3 -3 -3 -3 -3 -3 -3 -3 -4 -4 -4 -4 -4 -5 -5
-1 -1 -1 -1 -1 -1 -2 -2 -2 -2 -2 -2 -2 -2 -2 -2 -2 -2 -2 -2 -2 -3 -3 -3 -3 -3 -3 -3 -3 -3 -3 -3 -3 -4 -4 -4 -4 -4 -4 -5 -5 -5 -5
-2 -2 -2 -2 -2 -2 -2 -3 -3 -3 -2 -2 -2 -3 -3 -3 -3 -3 -3 -3 -3 -3 -3 -3 -3 -4 -4 -4 -4 -4 -4 -4 -4 -4 -4 -4 -5 -5 -5 -5 -5 -6 -6
-2 -2 -2 -3 -3 -3 -3 -3 -3 -4 -4 -4 -3 -3 -3 -3 -3 -3 -4 -4 -4 -4 -4 -4 -4 -4 -4 -4 -4 -4 -4 -4 -4 -5 -5 -5 -5 -5 -5 -6 -6 -6 -6
-3 -3 -3 -3 -4 -4 -4 -4 -4 -4 -4 -4 -4 -4 -4 -4 -4 -4 -4 -4 -4 -5 -5 -5 -5 -5 -5 -5 -5 -5 -5 -5 -5 -5 -5 -5 -6 -6 -6 -6 -6 -6 -6
-4 -4 -4 -4 -4 -4 -5 -5 -5 -5 -5 -5 -5 -5 -5 -5 -5 -5 -5 -5 -5 -5 -5 -5 -5 -5 -5 -5 -5 -5 -5 -5 -5 -5 -5 -6 -6 -6 -6 -6 -7 -7 -7
-5 -5 -5 -5 -5 -5 -5 -6 -6 -6 -6 -6 -6 -6 -6 -6 -6 -6 -6 -6 -5 -5 -5 -5 -5 -5 -5 -5 -5 -5 -5 -5 -6 -6 -6 -6 -6 -6 -7 -7 -7 -7 -7
-5 -5 -5 -6 -6 -6 -6 -6 -6 -6 -6 -6 -6 -6 -6 -6 -6 -6 -6 -6 -6 -6 -6 -6 -6 -6 -6 -6 -6 -6 -6 -6 -6 -6 -6 -6 -7 -7 -7 -7 -7 -7 -7
-6 -6 -6 -6 -6 -6 -6 -6 -7 -7 -7 -7 -7 -7 -7 -7 -7 -6 -6 -6 -6 -6 -6 -6 -6 -6 -6 -6 -6 -6 -6 -6 -6 -6 -7 -7 -7 -7 -7 -7 -7 -8 -8
-6 -7 -7 -7 -7 -7 -7 -7 -7 -7 -7 -7 -7 -7 -7 -7 -7 -7 -7 -7 -7 -6 -6 -6 -6 -6 -6 -6 -6 -6 -6 -7 -7 -7 -7 -7 -7 -7 -7 -7 -8 -8 -8
-7 -7 -7 -7 -7 -7 -7 -7 -7 -7 -7 -7 -7 -7 -7 -7 -7 -7 -7 -7 -7 -7 -7 -7 -7 -7 -7 -7 -7 -7 -7 -7 -7 -7 -7 -7 -7 -7 -8 -8 -8 -8 -8
Wind_Speed
2 2 2 2 1 1 2 2 2 2 2 3 4 4 4 4 4 3 3 4 4 3 3 3 3 3 3 2 2 2 2 3 3 2 1 1 2 2 2 4 4 4 5
2 2 2 2 2 2 2 2 2 2 2 3 3 3 3 4 4 4 4 4 5 5 4 4 4 3 3 3 3 3 3 3 3 3 1 1 2 3 2 2 2 3 4
2 3 2 2 2 2 2 1 1 2 2 2 3 3 4 4 4 4 5 4 4 4 5 5 5 5 4 3 3 3 3 2 2 3 2 1 1 1 2 1 1 2 3
3 3 3 2 2 2 1 2 2 2 2 3 3 3 4 4 4 4 4 4 4 4 4 5 5 6 6 5 4 4 3 3 3 2 2 1 1 1 2 2 1 1 2
3 3 2 2 2 1 1 1 2 2 3 3 3 3 3 3 4 5 5 5 4 4 3 4 4 6 7 6 5 4 4 4 3 3 2 1 2 2 2 2 2 1 2
3 2 2 1 1 1 1 1 1 1 2 2 3 3 3 3 5 6 5 4 5 5 4 4 4 5 6 8 8 7 7 6 6 4 3 4 4 4 3 3 2 1 2
2 2 1 1 1 1 1 1 1 1 2 2 3 4 4 5 6 6 7 4 4 5 5 4 3 4 5 4 5 7 7 9 9 6 6 6 5 5 4 4 4 3 3
2 1 1 1 1 1 1 1 1 1 2 2 3 3 3 4 5 6 6 4 4 4 5 5 5 4 5 5 4 4 4 5 7 5 6 6 5 5 6 5 4 2 1
2 1 1 1 1 1 1 1 1 0 0 1 1 2 3 3 4 4 4 2 3 3 4 4 5 5 7 7 5 5 4 3 4 6 6 6 6 6 6 4 3 2 2
1 1 1 1 1 1 1 1 0 0 0 1 1 1 1 2 3 3 3 2 3 3 2 3 6 6 7 7 5 5 5 4 3 2 3 3 3 4 6 5 5 3 2
1 1 1 1 1 1 1 1 1 1 1 1 2 2 2 2 2 2 3 2 3 2 2 3 3 6 7 7 6 5 6 4 3 3 2 2 1 2 3 3 4 4 3
2 2 1 1 1 2 2 2 2 2 2 2 2 3 2 2 3 2 2 3 2 2 3 2 3 5 6 6 4 5 6 4 2 2 2 2 2 3 2 2 3 3 3
3 2 2 2 2 2 2 2 2 1 1 1 1 2 3 2 3 4 3 2 2 1 2 3 3 4 3 3 3 5 4 3 3 3 3 3 3 2 2 1 1 1 1
3 2 2 3 3 3 2 1 1 0 0 1 1 2 2 3 2 2 2 2 2 1 1 1 1 1 1 1 1 1 2 3 3 3 3 2 2 2 2 2 1 1 0
3 2 2 2 2 3 2 2 1 1 1 1 2 2 2 3 3 4 2 1 1 1 0 1 0 1 1 1 1 1 1 2 2 2 2 2 2 2 2 2 2 1 2
2 2 2 2 2 2 2 3 4 2 3 3 3 3 3 4 5 4 4 4 2 1 0 1 1 1 2 2 2 2 2 2 3 3 3 3 3 3 2 2 2 2 3
2 1 1 1 1 2 2 2 3 4 5 4 4 4 4 4 4 4 4 4 3 2 1 1 1 2 2 2 2 2 2 3 3 3 3 3 3 3 3 3 3 2 3
2 2 2 1 1 1 1 1 1 2 3 4 5 6 5 5 5 4 4 3 2 2 1 1 2 2 2 3 3 3 2 2 2 2 3 3 3 3 3 4 4 4 3
2 2 1 1 1 1 1 1 2 2 2 3 4 4 6 6 6 5 4 1 1 2 2 2 2 2 2 2 2 3 3 3 3 3 3 3 3 3 4 4 4 5 4
2 3 3 1 1 2 2 2 2 2 2 3 3 4 4 4 3 3 3 2 2 2 2 2 2 2 2 2 2 3 3 3 3 3 3 4 4 4 4 5 4 4 4
2 2 4 2 2 2 2 1 2 2 2 3 3 4 5 3 3 3 3 3 2 3 3 3 2 2 2 2 2 3 3 3 3 3 3 3 4 4 4 4 4 4 3
2 2 2 2 2 2 2 2 2 2 3 3 4 4 6 3 3 3 3 3 3 3 3 2 3 2 2 2 3 3 3 3 3 3 4 4 4 4 4 4 4 4 4
1 2 2 2 2 3 3 2 2 2 3 3 4 4 4 3 3 3 4 4 3 3 3 3 3 3 3 3 3 3 3 4 4 4 4 4 4 4 4 4 5 4 4
1 2 2 2 2 2 2 3 3 3 3 4 4 4 4 4 4 4 4 4 4 4 3 3 3 4 4 4 3 4 5 5 5 5 5 5 4 4 4 4 4 4 4
2 2 2 2 2 3 3 3 3 3 4 4 4 4 4 4 4 4 4 4 4 4 5 4 4 4 5 5 5 5 6 6 5 5 5 4 5 5 5 4 4 4 4
2 2 2 2 3 3 3 3 4 4 4 4 4 4 4 4 5 5 5 4 4 4 4 4 5 5 6 5 6 6 6 5 5 5 4 4 4 4 4 3 4 4 4
Wind_Direction
184 176 169 174 172 176 200 207 193 183 179 176 177 172 174 174 169 170 175 165 164 168 170 176 191 185 183 184 169 176 188 179 203 236 228 238 197 198 216 223 231 236 244
189 180 187 179 172 189 213 220 197 192 188 182 176 175 180 183 179 181 189 186 181 182 184 184 196 189 191 186 183 190 197 191 186 214 233 222 218 203 204 216 236 243 251
179 175 178 180 183 200 213 220 206 207 200 188 183 190 193 194 193 195 192 193 193 196 192 192 196 187 200 200 193 194 197 187 178 191 219 217 224 198 187 210 228 254 264
174 176 181 186 192 206 212 218 220 214 211 205 201 205 204 198 198 197 192 191 193 199 198 196 198 198 204 201 201 200 194 182 180 188 211 214 213 206 176 206 245 239 263
170 173 186 184 172 169 195 221 222 218 223 212 203 206 207 205 205 199 197 195 194 200 205 207 209 210 212 209 208 203 194 192 187 193 207 214 216 198 212 199 217 249 258
170 182 180 172 168 174 199 205 219 223 225 212 208 204 211 225 223 216 208 200 199 201 210 215 217 215 220 223 222 215 204 197 197 196 209 213 222 213 199 184 185 199 276
152 163 165 164 174 206 206 162 222 224 214 222 222 212 219 228 223 223 216 204 205 211 212 213 224 221 221 216 226 228 221 218 208 198 205 216 214 206 189 192 200 212 236
152 166 169 163 181 190 177 194 211 216 214 230 232 224 223 235 228 224 216 205 206 212 211 212 217 221 219 213 209 210 215 221 220 212 210 217 215 203 194 198 199 200 237
155 181 184 172 174 181 202 218 211 164 303 272 243 223 225 239 230 222 214 199 212 223 221 216 213 217 228 223 205 208 220 239 241 228 227 229 228 220 195 154 159 178 247
190 201 182 168 167 185 214 205 119 94 351 343 333 308 265 260 253 237 224 204 219 229 227 222 221 221 227 222 205 202 216 229 208 212 216 221 216 209 202 188 181 189 215
134 101 73 72 91 99 76 62 69 62 52 34 5 352 338 312 287 246 230 213 215 225 229 226 220 226 231 228 217 208 223 217 190 186 183 180 177 190 196 191 187 182 195
87 79 66 59 63 63 70 49 56 68 60 35 24 5 351 337 330 305 262 248 234 222 236 233 217 222 229 232 227 219 220 207 162 167 182 198 203 210 205 195 200 211 217
83 71 61 55 55 62 77 73 61 63 63 20 11 349 339 340 333 328 324 301 284 269 239 226 224 226 228 233 224 221 212 181 168 186 208 219 212 195 164 144 136 165 260
82 69 62 61 49 49 52 58 74 87 39 344 325 318 324 328 324 319 327 323 307 307 296 247 248 239 206 202 223 221 193 187 188 203 208 203 169 162 172 172 180 172 227
77 66 58 60 62 47 36 21 352 291 241 259 271 269 285 302 297 298 304 300 275 238 294 33 86 138 153 166 168 180 181 185 203 196 194 191 189 187 191 178 177 181 212
78 64 60 59 58 53 40 19 11 354 345 334 314 304 304 300 310 311 315 316 298 246 265 217 222 211 216 214 212 207 199 203 204 197 196 197 201 201 199 192 192 203 222
85 61 59 54 48 36 30 23 3 4 7 3 355 345 337 329 332 332 328 328 311 286 269 230 234 231 233 224 219 215 217 211 198 194 197 199 199 200 197 204 211 218 230
62 40 39 49 34 21 11 355 343 342 345 350 350 349 346 347 348 347 345 350 344 344 315 258 253 247 242 236 226 224 223 209 201 206 204 203 199 197 202 210 214 216 224
47 36 31 26 12 6 358 351 346 342 336 332 338 345 351 353 356 356 359 19 326 311 301 284 272 262 255 243 234 224 216 213 213 211 212 208 202 202 211 214 214 222 226
35 18 16 19 13 5 1 354 342 340 338 335 333 331 336 348 350 347 352 346 324 306 296 286 281 270 258 245 236 228 222 218 215 215 214 211 206 207 215 214 211 214 221
23 13 9 12 13 357 345 332 324 325 323 322 321 324 329 330 327 327 328 326 317 308 302 296 290 285 274 256 239 229 224 225 220 217 216 213 206 210 215 213 213 214 220
18 9 4 355 347 343 330 319 318 316 315 314 317 325 330 329 322 320 318 316 310 304 298 291 285 279 269 256 241 232 228 228 224 216 218 212 208 211 211 210 213 214 213
9 0 350 340 333 328 332 328 321 313 309 309 311 316 321 320 315 313 311 312 312 308 308 297 287 286 280 266 246 229 229 233 226 212 212 212 209 208 208 208 210 214 218
350 339 331 325 322 319 314 312 311 311 311 310 308 307 308 308 307 305 304 305 306 305 301 294 283 280 282 281 276 264 253 249 238 225 213 211 211 210 209 209 210 212 219
336 327 321 314 311 307 304 303 305 307 309 309 308 307 306 305 304 303 301 299 296 295 295 291 286 285 284 283 282 283 277 266 256 238 215 208 208 206 206 208 209 208 216
324 316 310 305 299 296 295 297 298 299 300 302 301 299 298 298 297 296 297 296 294 291 291 290 286 287 287 288 285 282 278 269 255 243 223 203 197 205 204 210 207 211 211
Height
1456 1456 1457 1458 1459 1460 1461 1461 1463 1464 1465 1467 1468 1470 1471 1473 1475 1476 1478 1479 1481 1484 1485 1487 1489 1491 1493 1494 1495 1496 1497 1498 1498 1499 1501 1502 1503 1504 1504 1505 1506 1506 1506
1454 1454 1455 1456 1457 1458 1458 1459 1460 1461 1463 1464 1465 1467 1468 1470 1472 1473 1474 1476 1478 1479 1481 1483 1485 1487 1489 1490 1491 1492 1493 1494 1495 1495 1496 1497 1498 1499 1500 1500 1501 1501 1502
1451 1452 1453 1454 1455 1455 1456 1457 1457 1459 1460 1461 1462 1464 1465 1467 1468 1470 1472 1473 1474 1476 1478 1480 1481 1483 1484 1486 1487 1488 1489 1490 1491 1491 1492 1493 1493 1495 1495 1496 1496 1496 1497
1449 1450 1451 1452 1452 1453 1453 1454 1455 1456 1457 1458 1459 1460 1462 1463 1465 1466 1468 1469 1471 1472 1474 1475 1477 1479 1480 1482 1483 1484 1485 1485 1486 1487 1488 1488 1489 1489 1490 1490 1491 1491 1492
1447 1448 1449 1449 1450 1450 1451 1451 1452 1453 1454 1455 1456 1457 1458 1460 1461 1463 1464 1465 1467 1468 1470 1471 1473 1475 1476 1477 1478 1479 1480 1481 1482 1482 1483 1483 1484 1485 1485 1485 1485 1486 1486
1444 1445 1446 1447 1447 1448 1449 1449 1449 1450 1450 1451 1452 1453 1455 1456 1457 1459 1460 1461 1463 1464 1466 1467 1469 1470 1472 1473 1474 1475 1476 1476 1477 1478 1478 1479 1479 1480 1480 1480 1480 1480 1480
1442 1443 1444 1444 1445 1445 1446 1446 1446 1446 1447 1448 1449 1450 1451 1452 1454 1455 1457 1458 1459 1460 1462 1463 1464 1465 1467 1468 1469 1470 1470 1471 1473 1473 1473 1474 1475 1475 1476 1476 1476 1475 1475
1440 1440 1441 1442 1442 1443 1443 1443 1443 1443 1444 1444 1445 1446 1448 1449 1450 1451 1452 1453 1454 1455 1457 1458 1459 1461 1462 1463 1463 1464 1465 1466 1467 1468 1469 1469 1470 1471 1471 1471 1471 1471 1471
1437 1438 1439 1439 1440 1440 1440 1440 1441 1440 1441 1441 1442 1443 1444 1445 1447 1448 1448 1449 1450 1451 1452 1453 1454 1456 1457 1458 1459 1459 1460 1461 1462 1463 1464 1464 1465 1466 1466 1466 1466 1466 1465
1435 1436 1437 1437 1437 1438 1438 1438 1438 1438 1438 1439 1439 1440 1441 1442 1443 1443 1444 1445 1445 1446 1447 1448 1449 1450 1452 1453 1453 1454 1455 1456 1457 1458 1459 1460 1460 1460 1461 1461 1461 1461 1460
1433 1434 1435 1435 1435 1435 1436 1436 1436 1436 1436 1436 1436 1437 1438 1439 1439 1440 1441 1441 1442 1442 1443 1444 1445 1446 1447 1448 1449 1449 1450 1451 1452 1453 1454 1454 1455 1455 1456 1456 1456 1456 1456
1431 1432 1432 1433 1433 1434 1434 1434 1434 1434 1434 1434 1434 1434 1435 1435 1436 1436 1437 1438 1438 1439 1439 1439 1440 1441 1442 1443 1444 1444 1446 1446 1447 1448 1448 1449 1449 1450 1451 1451 1451 1451 1452
1429 1430 1431 1431 1432 1432 1432 1432 1432 1432 1432 1432 1432 1432 1432 1433 1433 1434 1434 1434 1434 1435 1435 1435 1436 1437 1438 1438 1439 1440 1441 1441 1442 1443 1443 1444 1445 1445 1445 1446 1446 1447 1447
1428 1429 1429 1430 1430 1430 1431 1431 1430 1430 1430 1430 1430 1430 1430 1430 1431 1431 1431 1431 1431 1431 1431 1432 1432 1433 1433 1434 1435 1435 1436 1437 1438 1438 1439 1439 1440 1440 1441 1441 1442 1442 1442
1427 1428 1428 1428 1428 1429 1429 1429 1429 1429 1429 1429 1429 1429 1428 1428 1428 1429 1429 1428 1428 1428 1428 1428 1428 1429 1430 1430 1431 1431 1432 1433 1434 1434 1435 1435 1435 1436 1436 1437 1437 1438 1438
1426 1427 1427 1427 1427 1427 1427 1427 1427 1428 1427 1427 1427 1427 1426 1426 1426 1426 1426 1426 1425 1426 1426 1425 1425 1426 1426 1427 1427 1428 1428 1429 1430 1430 1430 1431 1431 1432 1432 1433 1433 1433 1433
1426 1426 1426 1426 1426 1426 1426 1425 1425 1425 1425 1425 1425 1425 1424 1424 1423 1423 1423 1423 1423 1423 1423 1422 1422 1423 1423 1423 1424 1424 1425 1426 1426 1426 1427 1427 1427 1427 1428 1428 1429 1429 1429
1426 1426 1425 1425 1425 1425 1424 1424 1424 1423 1422 1422 1423 1423 1422 1421 1421 1421 1420 1420 1420 1420 1420 1419 1419 1420 1420 1420 1420 1420 1421 1421 1422 1422 1423 1423 1423 1423 1423 1424 1424 1425 1425
1425 1425 1424 1424 1424 1423 1423 1423 1422 1421 1421 1420 1420 1420 1420 1419 1419 1419 1418 1418 1417 1417 1417 1416 1416 1416 1416 1416 1416 1417 1417 1417 1418 1418 1418 1419 1419 1419 1419 1420 1420 1420 1421
1424 1424 1423 1423 1422 1422 1422 1421 1421 1420 1420 1419 1419 1418 1418 1417 1416 1416 1416 1415 1414 1414 1414 1413 1413 1413 1413 1412 1412 1413 1413 1413 1413 1414 1414 1414 1415 1415 1415 1415 1416 1416 1416
1423 1422 1422 1421 1421 1420 1420 1420 1420 1419 1418 1418 1417 1417 1416 1415 1414 1414 1413 1412 1412 1411 1411 1410 1409 1409 1409 1409 1409 1409 1409 1409 1409 1409 1409 1410 1410 1410 1411 1411 1411 1412 1412
1422 1421 1421 1420 1419 1419 1419 1418 1418 1417 1417 1416 1415 1414 1414 1413 1412 1411 1410 1409 1409 1408 1408 1407 1406 1406 1405 1405 1405 1405 1404 1404 1405 1405 1405 1405 1405 1406 1406 1407 1407 1407 1407
1420 1420 1419 1419 1418 1417 1417 1416 1416 1415 1414 1414 1413 1412 1411 1410 1409 1408 1407 1406 1406 1405 1404 1404 1403 1402 1402 1401 1401 1400 1400 1400 1400 1400 1400 1400 1401 1401 1402 1402 1402 1403 1403
1419 1418 1417 1417 1416 1415 1415 1414 1413 1413 1412 1411 1410 1409 1408 1407 1406 1405 1404 1403 1402 1401 1400 1400 1399 1398 1397 1397 1396 1396 1396 1396 1396 1396 1396 1396 1396 1397 1398 1398 1398 1399 1399
1417 1416 1415 1414 1414 1413 1412 1411 1410 1410 1409 1408 1407 1406 1405 1404 1402 1401 1400 1399 1398 1397 1396 1395 1394 1394 1393 1393 1392 1392 1392 1392 1391 1391 1392 1392 1392 1393 1394 1394 1394 1395 1395
1415 1414 1413 1412 1411 1410 1410 1408 1407 1407 1406 1405 1403 1402 1401 1400 1398 1397 1396 1395 1394 1393 1392 1391 1390 1390 1389 1389 1388 1388 1388 1388 1388 1388 1388 1388 1389 1389 1390 1390 1391 1391 1391